This demonstration page uses our WeatherBlox Daily Observations layout. Learn more.

Left ArrowRight Arrow

39.08367, -84.50855

Hourly Observations for August 21, 2019

Temp ( °F °C ) Dew Point ( °F °C ) Humidity (%) Winds ( mph kmh ) Pressure ( in mb ) Visibility ( mi km ) Precip ( " mm )
12:53 am 00:53 Mostly Cloudy 68 20 67 19.4 96 96 ENE 3 6 30.01 1016 9 14 0.00 0.00
1:53 am 01:53 Cloudy 70 21.1 69 20.6 97 97 N N/A 30.01 1016 10 16 0.00 0.00
2:53 am 02:53 Cloudy 70 21.1 68 20 93 93 N N/A 30.01 1016 10 16 0.00 0.00
3:53 am 03:53 Clear 70 21.1 67 19.4 90 90 SW 3 6 30.01 1016 10 16 N/A
4:53 am 04:53 Clear 70 21.1 67 19.4 90 90 WSW 3 6 29.99 1016 10 16 N/A
5:53 am 05:53 Clear 68 20 66 18.9 93 93 S 5 7 29.98 1015 10 16 N/A
6:53 am 06:53 Mostly Cloudy 69 20.6 67 19.4 93 93 SSE 5 7 29.98 1015 10 16 N/A
7:53 am 07:53 Partly Cloudy 70 21.1 68 20 93 93 S 5 7 29.98 1015 10 16 N/A
8:53 am 08:53 Sunny 73 22.8 69 20.6 87 87 SSW 6 9 29.98 1015 10 16 N/A
9:50 am 09:50 Mostly Cloudy 75 24 70 21 83 83 WSW 6 9 29.98 1015 10 16 N/A
9:53 am 09:53 Mostly Cloudy 75 23.9 69 20.6 82 82 WSW 7 11 29.99 1016 10 16 N/A
10:53 am 10:53 Cloudy 76 24.4 69 20.6 79 79 WNW 10 17 30.01 1016 10 16 N/A
11:53 am 11:53 Cloudy 76 24.4 70 21.1 82 82 SW 5 7 30.01 1016 9 14 N/A
1:53 pm 13:53 Mostly Cloudy 84 28.9 71 21.7 65 65 WNW 7 11 29.99 1016 10 16 N/A
2:53 pm 14:53 Sunny 87 30.6 70 21.1 57 57 W 9 15 29.98 1015 10 16 N/A
3:53 pm 15:53 Partly Cloudy 87 30.6 69 20.6 55 55 W 7 11 29.97 1015 10 16 N/A
4:53 pm 16:53 Sunny 87 30.6 68 20 53 53 W 14 22 29.96 1015 10 16 N/A
5:53 pm 17:53 Mostly Sunny 87 30.6 67 19.4 51 51 W 14 22 29.96 1015 10 16 N/A
6:53 pm 18:53 Mostly Sunny 86 30 68 20 55 55 W 7 11 29.94 1014 10 16 N/A
7:53 pm 19:53 Mostly Sunny 83 28.3 67 19.4 59 59 NNW 9 15 29.94 1014 10 16 N/A
8:53 pm 20:53 Clear 77 25 69 20.6 77 77 N N/A 29.94 1014 10 16 N/A
9:53 pm 21:53 Clear 73 22.8 70 21.1 90 90 N N/A 29.96 1015 10 16 N/A
10:53 pm 22:53 Clear 72 22.2 69 20.6 91 91 N N/A 29.96 1015 10 16 N/A
11:53 pm 23:53 Clear with Mist and Fog 69 20.6 68 20 96 96 SE 3 6 29.96 1015 5 8 N/A

Powered by AerisWeather